Theta_e
328 329 331 332 332 332 332 333 333 333 334 333 332 332 333 333 333 331 328 327 329 331 334 335 333 332 331 330 329 328 329 331 331 329 330 331 332 335 336 336 334 333 334 331 331 334 335 335 334 334 333 333 332 330 328 327 327 329 329 327 326 323 323 325 325 326 323 322 324 324 324 326 328 328 326 327 328 328 327 327 327 326 326 326 326
329 329 330 331 331 332 332 332 332 330 332 333 332 332 332 333 333 331 329 327 330 334 336 335 332 332 326 327 327 326 327 329 329 329 330 333 332 333 335 335 334 333 335 332 332 330 330 332 332 331 330 333 334 333 331 331 330 329 327 323 323 324 322 324 325 325 321 320 319 318 320 323 326 327 327 327 327 327 328 328 328 327 326 326 327
328 328 329 330 331 332 332 332 332 332 332 332 333 332 331 331 328 327 327 327 329 335 335 333 331 329 328 327 328 327 328 330 330 330 333 332 331 332 334 333 333 333 332 332 332 329 329 328 330 329 329 332 333 333 333 331 328 326 326 326 322 322 322 323 324 325 320 320 320 318 314 314 319 324 327 327 327 328 328 328 328 327 327 327 326
325 326 327 330 331 331 331 331 331 332 332 332 332 331 330 327 324 325 327 326 328 332 332 330 330 331 330 329 329 328 329 333 329 328 329 330 332 331 330 331 332 332 331 332 332 330 328 329 330 328 329 331 332 332 332 331 332 331 330 330 329 326 325 323 325 325 322 319 314 317 316 314 312 316 321 325 328 327 327 328 328 327 327 327 327
325 326 328 329 329 329 330 331 332 331 330 330 329 329 329 325 326 327 327 326 327 331 330 330 332 332 332 330 327 325 324 323 325 326 326 328 332 331 333 331 331 333 332 332 333 332 329 329 328 329 328 330 332 332 332 331 330 330 330 330 329 328 326 325 324 325 324 325 320 314 312 312 314 315 319 321 327 326 326 327 328 327 327 328 327
326 326 328 329 330 331 331 331 330 328 327 327 327 328 328 328 329 329 330 331 331 329 330 331 331 330 328 325 321 319 321 323 323 325 327 327 327 328 331 331 331 331 332 332 332 331 329 329 329 329 328 328 330 331 332 331 329 328 328 330 330 330 328 326 324 325 326 325 325 323 321 316 314 316 318 314 326 327 326 327 327 327 327 328 328
326 328 329 328 329 329 329 329 327 327 327 328 329 330 331 331 331 330 330 329 330 329 328 328 326 324 324 323 323 323 321 321 321 323 325 327 327 328 330 329 330 330 332 330 329 329 330 328 329 329 329 329 330 330 330 331 331 330 329 329 330 331 329 325 326 325 324 326 326 325 325 324 322 319 316 316 315 321 325 325 325 327 327 327 328
326 327 328 329 329 329 328 327 327 327 328 329 329 329 329 329 329 327 327 328 328 328 327 327 325 321 321 322 323 322 322 323 325 326 327 329 328 326 327 328 328 330 331 330 329 329 330 329 329 329 329 330 332 331 330 331 331 331 331 331 331 331 330 327 326 327 324 324 326 324 324 325 324 323 322 319 316 315 318 324 326 326 326 326 328
327 326 326 327 327 327 328 327 326 327 328 327 328 328 328 327 326 326 325 324 324 327 327 326 328 325 325 323 323 323 324 325 326 326 327 328 327 326 327 328 329 329 328 330 329 330 330 329 328 327 328 329 331 330 330 331 332 332 331 330 330 331 331 331 328 327 327 326 325 324 325 324 323 323 323 321 317 316 316 318 319 325 326 326 326
326 326 326 325 325 325 325 325 324 325 325 326 327 327 325 324 324 324 323 323 324 325 325 325 325 326 325 323 323 323 325 325 325 325 326 326 326 327 329 331 332 333 333 332 329 330 329 329 328 328 328 328 329 328 328 329 330 330 331 330 331 331 332 330 328 329 329 328 327 326 323 323 323 321 321 321 320 320 316 317 319 319 318 323 326
324 324 324 324 324 324 324 323 323 323 324 324 325 325 324 323 322 322 322 324 326 327 327 326 326 326 325 324 323 323 323 323 323 323 324 325 326 328 329 330 331 332 332 333 332 331 329 329 327 327 327 329 329 328 327 328 329 330 331 331 330 330 330 331 330 329 329 328 328 327 326 324 323 320 320 321 320 318 317 318 320 321 321 320 323
322 322 321 322 322 322 322 321 321 321 322 321 321 322 323 322 321 321 322 323 324 324 325 326 326 326 324 324 323 322 321 322 322 321 322 324 325 326 327 328 328 330 330 330 330 330 329 328 328 326 326 326 327 328 328 328 329 330 330 330 329 330 330 329 329 329 329 329 328 328 327 327 325 323 322 321 320 319 319 318 319 322 322 323 325
320 320 320 320 320 319 319 319 319 319 319 320 320 321 321 321 321 320 319 320 321 321 321 321 322 322 322 322 322 323 322 321 320 320 321 322 324 324 325 324 326 326 326 326 326 327 328 326 327 326 326 326 327 327 327 328 328 328 329 329 329 328 328 328 326 326 326 326 327 327 326 326 325 326 325 323 323 323 321 318 320 323 320 321 323
319 319 319 318 318 318 319 319 319 319 319 319 319 320 320 320 320 320 320 319 319 320 320 320 321 322 323 323 322 322 322 322 322 321 321 323 323 323 323 323 323 323 322 322 323 325 326 326 327 327 327 327 327 327 327 328 328 328 328 328 328 328 328 328 327 327 327 327 327 325 325 325 325 326 325 325 322 322 320 319 318 319 320 319 322
318 317 317 317 317 318 317 318 318 318 319 319 319 319 319 319 319 319 319 319 320 320 319 318 318 320 321 321 321 321 321 320 319 320 319 319 319 319 319 320 320 320 320 321 323 323 324 325 326 326 326 326 326 326 327 327 328 329 329 329 329 329 328 328 327 327 326 326 326 325 325 325 325 326 326 325 325 323 322 320 319 315 316 319 319
316 316 316 317 317 317 317 317 317 317 317 318 318 319 319 318 318 319 318 319 320 320 319 318 318 319 319 318 318 319 319 317 317 316 316 315 316 316 316 316 317 317 319 320 321 321 322 323 324 325 326 326 325 326 326 327 328 328 328 328 327 329 328 327 327 327 327 327 327 327 326 325 326 326 327 326 326 325 324 323 321 319 316 312 317
315 315 315 315 316 316 316 316 316 316 316 316 316 317 317 317 317 317 318 318 317 316 316 316 315 316 315 314 314 314 314 314 315 314 315 315 315 315 315 315 315 316 317 318 318 318 319 320 321 322 324 325 325 325 325 326 328 328 328 327 327 328 328 327 327 327 327 327 327 327 327 327 327 327 327 327 326 325 326 324 323 321 319 316 314
314 315 315 315 316 316 316 316 316 316 316 316 316 316 315 315 316 315 314 313 312 312 314 313 313 312 312 313 313 313 314 314 314 314 314 314 313 313 313 312 312 313 315 315 315 315 316 319 318 320 322 324 325 325 325 326 327 327 327 327 328 328 327 327 327 327 327 327 327 327 327 327 327 327 326 327 327 326 326 325 323 323 323 318 317
313 313 313 314 314 315 315 316 316 317 317 316 315 314 314 314 314 313 312 311 311 312 313 313 313 312 313 313 312 313 314 314 314 314 313 312 311 311 311 311 311 312 312 311 311 313 314 315 316 318 321 323 323 324 325 326 327 327 327 327 328 328 326 326 326 326 326 326 325 325 326 326 327 326 326 326 326 326 326 325 324 323 323 322 320
312 312 312 313 314 314 315 314 314 314 313 313 313 312 311 310 311 311 311 311 312 312 313 312 311 312 312 312 312 312 313 312 312 311 310 310 309 310 310 309 310 311 310 310 310 311 313 313 314 316 320 323 323 323 323 323 325 326 326 326 327 327 326 326 326 327 327 327 326 325 326 326 327 326 326 325 325 326 326 325 324 323 323 323 321
311 312 312 312 313 313 314 314 314 314 313 312 311 311 309 309 309 310 310 311 311 312 312 311 311 310 310 309 310 311 310 311 309 310 309 308 308 309 308 309 309 308 309 309 311 311 311 311 312 317 321 323 324 323 324 324 324 325 326 326 326 327 326 326 326 326 327 326 326 326 326 327 328 326 326 326 325 325 326 325 325 323 322 323 321
310 312 312 312 312 312 312 313 313 313 312 311 312 312 311 310 309 310 311 311 311 311 310 310 309 309 309 309 309 309 309 308 308 307 308 308 308 307 308 308 307 307 308 309 311 310 308 309 311 314 317 318 321 322 323 324 324 324 325 326 326 326 325 325 326 325 326 326 326 325 326 326 328 327 327 327 327 326 325 325 324 323 323 322 323
310 311 311 311 310 310 311 311 311 311 311 311 310 311 310 309 309 310 310 309 310 309 309 309 308 308 308 308 308 308 308 307 306 306 306 308 308 308 309 308 307 307 308 309 309 307 307 308 309 311 312 313 316 318 321 320 319 321 322 324 325 325 325 325 325 325 326 327 326 326 326 326 327 326 326 325 325 324 325 325 324 323 322 322 323
309 309 309 309 309 310 310 310 310 310 310 311 310 309 309 309 309 309 309 309 309 309 308 308 308 307 307 307 307 307 306 306 306 306 307 308 308 308 309 308 307 307 307 307 308 306 306 307 307 307 308 309 310 313 317 314 313 313 313 315 319 324 325 325 325 326 326 326 326 325 326 326 326 325 325 325 325 325 325 325 324 323 323 322 322
307 307 307 308 308 308 308 309 309 309 309 308 308 307 308 308 309 308 308 308 308 308 307 307 307 307 307 306 306 306 305 306 306 307 307 308 307 307 308 307 307 306 307 307 306 306 306 305 305 305 305 305 306 308 312 311 309 308 307 308 311 315 320 324 326 326 327 327 326 325 326 326 326 324 324 324 325 325 325 324 322 322 323 323 322
305 305 306 306 307 307 307 307 307 307 307 307 307 307 307 307 307 307 307 307 307 307 307 307 306 306 305 305 305 306 306 307 308 307 307 307 307 307 306 306 306 305 305 305 305 304 305 304 304 304 304 304 305 306 309 310 308 306 305 305 306 309 313 318 324 326 327 327 326 326 326 326 325 324 324 324 325 325 325 324 322 322 322 323 321
304 305 305 305 305 305 306 306 306 306 306 307 306 306 306 306 306 306 306 306 306 306 306 306 305 305 305 305 305 307 308 308 307 307 306 306 306 306 306 305 306 305 304 304 304 304 304 304 304 304 303 303 304 305 306 308 307 305 303 302 303 304 307 312 319 325 326 327 327 326 325 325 325 325 324 324 324 324 325 323 323 322 322 322 321
304 303 303 304 304 304 304 304 305 305 306 306 306 305 305 305 305 305 305 305 306 305 305 305 306 306 305 304 305 306 307 307 307 306 305 305 305 305 304 304 305 303 304 303 303 303 303 303 303 303 303 303 303 303 304 306 305 303 301 300 301 302 304 308 313 321 325 326 326 326 325 325 325 325 325 324 324 323 323 323 322 322 322 321 320
303 303 303 304 303 302 303 303 304 304 304 305 305 305 305 305 304 304 304 304 304 304 305 306 306 305 304 304 304 304 304 304 304 303 303 304 304 304 304 303 303 303 304 303 303 303 302 302 302 302 302 302 302 302 303 304 301 300 299 299 299 300 303 306 311 317 323 325 325 325 325 325 326 327 321 319 320 320 323 321 321 321 321 320 320
301 302 302 302 301 301 302 302 302 302 302 303 304 304 304 303 303 303 304 304 304 304 305 305 304 303 303 303 302 303 302 302 302 301 301 302 303 303 303 302 302 302 302 303 302 302 301 301 301 301 301 301 301 302 303 299 298 297 297 298 298 300 303 306 310 314 321 324 324 324 325 326 321 319 317 310 308 310 316 322 322 321 321 320 320
300 300 300 300 300 300 301 301 301 301 302 302 303 303 302 302 302 302 302 303 303 303 303 302 302 302 302 301 301 301 301 301 300 300 300 300 301 302 301 301 301 302 301 301 301 300 300 300 300 300 299 300 300 301 297 293 293 295 297 297 298 300 303 306 309 314 320 322 322 323 323 324 322 320 317 308 304 304 305 307 310 314 317 321 320
299 299 299 300 300 300 300 300 301 301 302 302 302 302 302 301 301 301 301 302 302 301 301 301 301 301 302 301 300 299 299 299 298 298 298 298 299 299 300 300 300 300 301 301 300 300 300 300 300 299 299 299 299 298 293 293 294 295 296 298 299 301 304 309 314 315 315 317 318 320 321 321 322 323 322 320 312 304 301 302 304 305 305 308 311
299 299 299 299 299 299 300 300 301 301 301 302 302 301 301 301 300 300 301 300 300 300 300 300 299 300 299 300 300 298 297 297 297 297 297 297 297 297 299 300 300 301 300 299 299 299 299 299 299 298 298 298 297 295 293 294 294 295 296 297 302 308 309 309 307 307 306 307 309 311 316 319 321 321 323 323 321 317 305 301 303 304 304 304 302
299 299 299 299 299 299 299 300 301 301 302 302 302 301 301 301 301 300 300 299 299 299 298 298 298 298 298 298 298 298 297 296 296 296 296 295 295 295 297 300 300 300 299 299 299 298 299 299 299 298 298 297 296 294 293 293 294 295 296 301 307 306 306 305 304 303 303 303 304 306 309 314 318 318 317 317 318 317 315 311 310 312 314 311 303
299 299 299 299 298 298 298 299 299 300 301 301 301 301 300 300 300 299 299 298 298 298 297 297 297 297 297 296 296 296 297 296 295 295 294 294 294 295 296 298 299 299 298 298 298 298 298 298 298 298 297 296 295 293 292 293 293 294 297 300 305 305 304 303 303 302 301 301 302 303 306 309 315 315 311 304 312 315 316 315 315 314 315 315 315
299 298 298 299 299 298 298 298 300 300 300 300 300 300 300 299 300 299 298 298 297 296 296 296 295 295 295 295 295 295 295 295 294 293 293 293 293 294 295 297 298 298 299 298 298 298 297 297 297 297 296 295 295 292 292 293 293 294 298 304 303 303 302 302 301 301 301 301 301 301 302 306 308 308 301 296 301 311 315 314 312 310 309 309 304
299 300 299 300 299 299 299 299 299 299 299 299 300 300 300 299 298 298 297 296 295 294 293 294 294 294 295 294 294 294 294 294 293 293 292 292 292 293 294 297 297 297 297 297 297 297 297 297 297 297 296 295 295 293 292 292 293 294 298 302 302 301 300 300 300 300 300 300 300 300 300 300 302 301 296 294 297 305 310 309 307 306 305 304 302
298 299 298 298 297 298 299 299 298 298 299 299 299 299 298 297 296 296 295 294 293 293 293 293 292 293 293 293 293 293 292 293 292 292 291 291 292 293 294 296 296 296 296 296 297 296 296 297 296 296 296 295 295 294 292 292 292 293 297 300 300 299 299 299 299 299 299 299 300 300 301 298 297 297 294 294 298 306 309 307 306 305 303 302 302
298 298 297 296 296 297 298 298 298 298 298 299 299 298 297 296 295 294 294 293 292 292 292 292 292 292 293 293 293 292 292 291 291 291 292 291 292 292 294 295 296 296 296 296 296 295 295 295 296 296 298 295 295 295 293 292 292 292 297 298 298 298 297 297 297 298 298 298 298 298 298 296 296 295 292 294 296 303 305 305 305 304 302 301 301
297 298 297 297 298 298 298 298 298 297 298 298 298 297 297 295 294 293 292 292 291 292 291 292 292 292 292 293 292 293 292 291 290 291 291 291 292 292 292 293 294 295 295 295 294 293 293 293 294 295 296 296 295 295 294 292 292 292 293 297 297 296 296 296 296 297 296 297 297 297 296 292 292 292 292 292 293 295 300 301 300 299 299 299 302
296 296 297 296 297 298 298 297 297 298 298 298 297 295 294 293 292 292 291 291 291 292 292 292 292 292 292 291 291 291 291 290 290 290 291 292 291 291 291 291 291 292 293 293 293 293 293 293 294 294 294 294 296 294 294 292 292 292 292 294 295 295 295 295 295 295 295 295 296 296 296 293 292 292 292 292 293 293 295 299 298 297 297 298 300
296 296 295 295 296 296 296 296 296 297 297 296 295 294 292 292 291 291 290 291 292 292 292 292 292 292 291 291 290 291 291 291 291 290 290 290 291 291 292 292 292 292 292 292 292 293 293 293 293 293 294 294 296 296 294 293 292 292 291 292 294 294 295 295 294 293 293 293 294 295 295 294 292 292 292 293 293 293 294 297 295 293 293 295 299
294 294 295 296 295 295 295 295 296 296 296 295 294 293 292 292 291 290 291 292 292 292 292 292 292 291 292 291 290 290 290 291 290 290 289 289 289 290 291 292 292 293 293 293 293 293 293 293 293 293 293 294 294 295 294 294 292 291 291 291 291 292 292 295 294 293 293 293 294 294 295 294 292 292 292 292 293 294 295 294 292 293 293 294 297
294 295 295 296 295 294 294 294 295 295 295 295 294 293 292 292 291 291 292 293 292 292 291 291 291 290 290 290 290 290 289 288 289 289 289 288 289 289 290 290 290 290 291 292 292 293 293 292 291 291 293 294 294 294 294 293 293 292 291 291 291 291 291 294 294 293 293 293 293 293 293 292 292 292 292 292 292 293 293 292 293 294 294 295 298
293 293 295 295 294 293 294 294 294 295 295 295 294 293 292 291 291 292 292 292 291 291 291 289 289 288 289 288 288 288 288 287 287 287 287 287 288 288 288 288 289 289 289 289 289 290 290 290 291 291 292 293 293 293 293 293 292 293 292 291 291 291 291 292 293 294 293 293 291 291 291 292 292 292 293 293 293 293 292 292 293 294 298 298 298
293 293 294 294 294 293 293 292 292 293 294 294 294 293 292 291 291 292 292 292 291 291 290 288 288 287 287 287 287 287 287 286 286 287 287 286 286 287 287 287 287 288 288 288 288 288 288 288 289 290 291 292 293 293 293 293 294 294 293 292 292 291 292 292 293 293 292 291 291 291 291 292 293 293 295 295 294 294 293 293 293 295 297 297 297
293 293 293 293 293 293 293 293 292 292 293 293 293 293 293 292 292 292 292 292 291 290 290 288 287 287 287 287 287 287 286 286 286 286 286 286 286 285 286 287 286 286 287 287 287 287 287 288 288 288 289 291 292 292 292 292 292 293 293 293 293 293 293 293 293 294 293 294 293 293 292 292 292 292 292 293 293 293 294 295 296 295 295 296 295
293 293 293 293 293 292 292 292 292 291 292 293 293 293 293 292 292 292 291 291 290 289 288 286 287 287 287 286 287 287 286 286 285 285 285 286 285 285 285 284 284 284 285 286 286 287 286 286 286 287 288 289 290 291 291 290 291 291 292 292 292 292 292 292 291 292 293 294 293 292 292 293 293 293 293 294 294 294 293 293 294 295 295 295 295
292 292 293 292 292 292 292 291 290 290 292 292 292 292 293 292 292 292 292 291 289 288 287 287 287 286 286 286 287 285 285 284 284 285 283 283 284 285 285 285 284 284 284 285 284 285 286 284 284 285 287 288 289 289 289 289 290 290 290 290 290 290 291 291 291 290 293 292 292 291 290 290 290 289 290 290 291 291 291 292 292 292 293 293 293
292 293 292 292 292 291 291 290 289 290 291 291 291 292 292 292 292 291 292 291 290 288 287 287 287 286 286 286 286 286 286 285 284 284 285 286 287 289 287 284 285 289 288 288 288 286 285 284 285 285 285 286 286 287 289 289 289 290 291 290 290 290 289 290 290 290 291 289 288 288 288 288 288 288 288 287 288 288 288 289 289 289 290 290 290
293 292 291 291 290 291 290 290 289 291 291 291 291 292 292 292 292 292 292 291 290 289 288 287 287 287 287 287 285 286 284 284 284 283 285 283 285 286 288 289 289 289 289 288 288 288 288 288 287 285 286 288 288 288 288 289 289 290 290 290 290 290 290 289 289 288 288 287 287 287 286 286 286 287 286 286 286 287 287 287 288 288 289 288 288
Wind_Speed
7 8 7 7 7 6 6 7 7 7 7 7 7 7 7 7 6 5 3 2 2 2 2 2 2 1 2 1 1 2 2 1 2 2 2 3 3 3 4 5 4 4 4 4 5 5 4 3 3 2 2 3 3 4 4 3 3 4 4 4 6 5 4 3 3 5 4 0 1 1 3 3 4 4 5 4 5 4 3 3 2 3 4 5 5
9 8 7 7 6 8 6 7 9 9 8 7 8 6 4 5 5 3 2 1 2 3 2 3 2 2 1 2 2 2 1 1 3 1 2 2 3 3 4 4 4 5 4 4 4 4 3 3 3 3 3 3 4 4 3 3 2 2 1 1 2 3 3 4 4 5 2 4 3 2 3 3 5 5 6 5 4 3 5 7 7 7 9 8 5
9 9 7 7 9 8 6 5 5 6 8 7 6 5 4 4 2 2 2 3 2 2 2 1 1 1 1 2 3 2 1 2 2 2 1 1 2 4 4 4 4 4 4 3 3 3 3 3 4 4 4 4 3 4 4 4 3 3 4 4 2 3 3 2 7 7 4 2 1 0 2 2 2 5 5 6 5 6 6 7 7 8 9 7 5
13 12 11 10 9 9 8 7 7 7 7 6 5 5 4 3 3 3 3 2 2 1 1 0 1 0 0 1 1 0 0 0 0 0 1 2 3 1 3 3 3 3 3 3 3 3 3 4 4 3 4 3 4 4 4 5 4 4 4 5 4 4 3 3 7 8 5 6 1 5 2 2 3 6 7 6 7 7 8 8 7 8 7 6 5
14 14 11 11 10 9 8 7 7 5 5 5 5 4 3 3 3 3 3 2 1 1 1 2 2 1 1 1 2 1 1 4 3 4 3 2 3 4 4 1 3 4 3 4 3 4 3 3 3 4 4 4 4 4 4 5 5 5 5 5 5 5 5 3 4 7 8 7 5 2 1 1 5 2 3 4 6 7 8 7 8 7 7 7 8
10 14 13 11 10 9 6 7 5 4 4 4 3 4 4 4 4 4 3 2 3 2 1 2 2 2 2 3 3 3 3 5 5 4 6 5 4 3 3 2 2 3 4 4 3 3 3 3 3 4 4 4 4 4 5 4 5 5 5 5 6 6 6 5 5 4 7 8 9 7 4 3 2 1 2 4 4 7 6 7 7 7 7 8 8
9 10 10 10 10 10 7 6 4 4 4 4 4 4 5 4 4 4 4 4 3 3 2 3 4 3 2 1 1 1 1 3 2 2 3 5 3 4 4 2 2 3 4 3 2 2 2 2 3 3 4 4 4 4 5 5 5 5 5 5 6 5 5 7 7 5 3 6 7 9 7 4 1 2 5 1 2 2 5 7 7 8 7 8 8
12 10 11 11 10 11 10 7 5 5 5 5 5 5 6 6 6 5 4 5 3 3 5 4 5 3 3 3 2 2 1 2 4 4 3 3 4 3 3 3 3 3 4 3 3 2 2 3 3 3 4 4 5 5 5 5 5 5 5 6 5 5 6 7 8 6 7 5 6 8 8 9 8 4 2 4 3 3 4 4 5 7 8 8 9
11 11 11 10 10 9 9 8 5 7 6 6 5 6 6 6 6 6 6 5 4 5 5 5 4 4 4 3 4 3 1 2 2 2 4 4 4 5 4 3 3 3 3 3 3 3 3 3 3 3 4 5 4 5 5 5 6 5 4 4 5 6 6 7 7 7 6 7 4 6 7 8 8 9 9 3 5 5 5 6 6 6 7 8 8
10 11 11 10 9 9 9 8 8 7 7 8 6 6 6 5 6 7 5 5 3 5 5 5 4 4 5 4 5 4 4 4 4 5 5 4 5 5 5 5 5 5 5 4 4 3 4 4 4 5 5 5 4 5 4 5 5 6 7 7 6 7 7 7 8 8 7 7 8 7 7 6 6 5 8 8 6 6 7 6 8 9 10 9 9
10 11 12 12 11 10 11 11 9 7 8 8 7 7 6 6 5 7 4 4 4 5 6 5 5 4 4 4 4 4 4 4 5 6 5 5 5 5 6 5 5 5 5 6 5 5 5 3 4 5 4 4 4 4 5 5 6 6 6 6 7 8 7 8 9 9 9 8 9 8 9 9 9 9 8 9 10 7 7 8 5 7 10 8 10
11 11 12 12 12 11 12 11 9 9 9 9 6 7 7 5 6 7 6 6 6 7 7 6 5 5 4 5 5 4 4 4 5 5 5 5 5 5 5 4 5 6 5 6 7 6 5 5 4 4 4 4 5 5 4 4 5 5 5 6 7 8 8 7 7 7 7 8 10 9 9 9 9 9 8 8 9 9 9 9 8 5 6 6 1
11 11 10 10 11 11 12 11 9 9 9 9 8 7 6 7 7 8 6 5 6 6 6 5 5 4 4 5 4 4 4 4 3 3 3 4 5 5 5 5 5 6 7 7 7 8 7 6 6 5 4 4 5 4 5 5 6 6 6 6 7 8 7 8 7 9 11 10 10 6 6 8 10 10 7 7 7 8 8 8 6 4 6 5 3
11 11 10 10 10 10 11 10 10 8 8 9 9 6 6 7 6 8 5 3 4 6 5 6 5 5 6 5 5 5 5 4 4 4 4 3 3 3 3 4 5 4 5 6 6 7 7 6 6 6 5 5 4 4 5 5 5 6 7 7 8 8 7 9 9 9 9 11 10 7 8 8 8 7 8 8 8 7 7 9 6 4 6 6 3
11 11 10 10 10 11 10 9 9 7 8 8 8 7 6 7 7 6 4 5 6 5 5 5 4 4 4 4 4 3 4 4 4 4 4 4 4 4 4 4 5 5 5 6 6 6 7 7 6 6 6 5 4 5 5 5 5 6 6 7 7 7 7 7 8 9 10 10 10 9 8 9 9 9 8 9 8 10 10 9 9 8 6 6 7
11 11 10 10 10 10 9 9 8 8 7 6 6 7 7 7 7 5 5 5 5 5 5 3 3 3 4 4 4 4 3 3 4 4 4 3 4 4 5 4 5 5 5 5 6 6 7 7 7 7 6 5 5 5 5 5 5 6 6 6 8 6 8 9 9 9 10 11 11 10 9 10 9 9 8 8 9 9 10 8 10 10 10 7 5
11 11 10 9 8 9 8 8 7 7 6 6 6 6 7 6 6 6 5 5 6 4 3 2 3 5 5 4 4 4 4 5 5 5 5 4 4 4 5 5 5 5 6 5 7 7 7 7 7 7 7 6 6 5 5 5 6 6 6 7 8 7 7 8 8 8 8 9 10 11 10 9 9 9 9 8 9 8 9 9 9 9 8 8 6
10 11 11 10 10 10 8 7 7 7 7 7 8 6 5 4 6 6 5 5 3 3 4 4 4 3 3 4 5 5 5 5 5 5 5 5 6 6 5 6 7 6 6 6 7 7 7 8 8 8 8 7 6 6 5 5 6 7 7 8 8 8 9 8 7 8 9 8 8 9 9 8 7 6 7 8 9 8 8 8 8 9 9 10 8
9 8 9 9 9 9 8 8 7 5 5 6 7 6 5 4 4 5 5 3 3 3 4 4 4 3 4 5 5 6 6 6 6 6 6 6 6 6 6 5 5 6 7 8 8 8 8 8 8 8 8 7 6 6 6 6 6 7 7 6 7 7 7 8 8 8 8 9 9 11 10 9 8 8 8 7 7 7 7 8 8 8 8 9 8
9 8 10 9 8 7 7 7 7 7 7 7 7 5 5 3 4 4 4 4 5 6 5 5 4 5 6 6 7 6 6 6 6 6 7 6 6 6 7 7 8 6 7 7 7 7 8 9 8 8 8 6 6 6 5 6 6 6 7 7 7 7 8 9 9 8 8 8 9 10 9 9 8 7 8 8 8 7 7 7 8 8 7 8 7
9 8 9 9 8 6 6 6 6 6 6 7 6 5 4 4 5 5 7 7 7 6 6 5 6 6 6 7 6 6 7 6 6 6 6 5 6 6 6 6 6 7 7 7 8 7 8 8 9 8 8 8 7 7 7 6 7 7 7 7 7 8 8 8 8 9 8 8 9 10 10 10 9 9 8 7 8 9 8 6 7 8 9 8 8
10 7 9 9 7 6 6 5 5 7 6 6 5 5 5 6 6 7 7 7 7 7 5 5 5 6 6 6 6 5 5 6 6 6 6 6 5 5 5 5 6 6 6 7 8 7 7 8 8 9 9 9 9 8 8 7 7 7 8 7 7 8 8 9 9 9 8 8 8 10 10 10 9 9 9 10 8 6 8 8 7 7 8 8 8
9 8 8 7 6 6 7 8 8 7 6 5 5 6 7 7 7 7 9 7 6 5 4 4 6 6 6 6 6 6 6 5 6 5 6 6 6 6 6 7 7 7 7 8 9 9 9 9 9 9 10 9 10 9 8 9 10 10 9 8 7 7 8 8 9 9 9 8 8 8 9 9 7 9 8 7 6 5 7 9 9 9 9 8 8
9 7 7 7 7 7 8 9 8 6 6 6 6 7 7 7 7 8 9 7 6 5 4 5 6 6 5 6 6 5 6 6 6 5 5 6 6 6 7 8 8 7 8 8 8 9 9 10 9 10 10 10 10 10 8 7 7 8 9 10 10 9 8 8 9 9 9 8 8 8 8 8 8 9 8 7 7 8 8 9 9 9 9 9 9
11 10 10 10 10 9 8 8 7 7 6 6 7 8 7 7 7 7 7 5 5 4 5 5 6 6 6 6 6 5 5 5 5 5 7 7 7 7 7 8 7 7 8 7 8 8 8 9 9 10 10 10 10 10 9 8 7 7 9 9 10 10 10 10 10 9 10 9 8 8 8 8 8 8 7 7 7 9 9 8 8 7 8 8 7
11 11 12 11 9 8 8 7 6 6 7 8 9 9 8 8 7 5 6 5 5 4 5 5 5 6 5 6 5 5 5 5 5 5 6 6 6 7 7 6 7 8 7 7 8 7 8 9 9 9 9 10 10 10 10 9 8 9 9 9 9 10 10 10 11 9 9 8 8 8 8 8 8 9 8 7 8 11 10 9 9 8 9 9 9
12 11 10 10 9 9 8 8 7 8 8 8 9 9 8 8 8 6 5 5 4 4 4 5 5 5 6 5 5 5 5 5 5 5 4 5 6 6 6 7 7 7 7 7 8 9 8 8 9 9 9 10 10 10 10 9 9 9 10 10 10 10 11 10 10 10 8 8 8 8 7 8 8 8 8 8 8 9 10 10 8 9 9 9 9
10 10 11 11 10 8 9 9 10 9 9 9 8 8 8 8 7 5 5 5 4 5 5 5 5 7 7 6 5 5 5 5 4 4 4 4 4 4 5 5 6 7 8 9 9 9 8 9 9 9 9 9 9 9 9 9 9 11 11 11 10 10 11 11 12 12 9 8 8 8 8 8 9 9 8 7 7 7 7 7 6 8 9 10 9
11 10 11 11 9 8 9 10 10 10 10 9 9 8 8 7 6 5 5 5 4 5 6 7 7 7 5 4 4 4 4 4 5 5 5 5 5 4 5 5 6 7 7 8 9 9 9 10 10 10 10 9 8 8 6 8 12 13 10 11 10 10 10 10 11 11 9 7 7 7 7 7 9 12 13 11 9 9 7 6 5 7 8 9 9
11 10 10 9 9 8 9 10 10 10 8 8 8 9 8 8 6 6 6 4 5 6 7 6 6 5 4 4 4 4 4 4 5 6 6 6 5 5 6 6 7 7 8 9 9 9 9 10 10 11 10 8 7 6 13 25 20 12 10 8 8 9 9 9 10 11 10 7 7 6 7 13 13 12 12 11 12 14 14 11 8 8 9 9 9
10 10 9 9 10 10 10 11 11 10 9 8 8 8 8 8 6 6 6 4 6 7 7 6 6 5 4 4 5 5 5 6 6 6 6 7 7 6 6 6 7 8 8 9 9 10 10 9 9 10 11 9 8 8 23 21 21 18 9 7 7 7 8 9 9 10 9 7 6 5 5 8 9 10 10 12 12 12 13 14 14 12 12 11 10
10 9 9 10 11 11 11 12 11 10 9 8 8 7 8 7 6 6 5 5 7 7 6 6 5 5 4 4 5 5 6 6 6 7 7 7 7 6 6 7 8 9 9 8 9 10 9 10 8 10 9 10 9 16 21 20 19 17 6 4 4 5 7 7 7 9 9 9 8 7 6 5 5 6 6 6 8 11 13 14 15 15 14 16 16
9 10 10 10 11 11 11 11 10 9 9 8 8 8 8 7 7 5 5 7 6 6 6 6 5 5 5 5 4 5 5 6 5 5 5 6 7 7 7 7 9 8 8 9 9 10 10 10 10 11 11 11 10 18 20 20 19 18 12 2 2 5 7 7 9 9 10 10 10 10 8 6 5 8 8 6 5 6 9 12 14 14 15 16 15
9 9 10 9 9 9 9 10 9 8 9 7 7 9 8 7 7 6 7 6 7 6 6 5 5 5 5 5 5 4 5 5 5 5 6 7 8 8 8 7 7 8 8 9 9 10 9 10 10 10 9 9 10 19 21 21 20 18 16 11 9 8 8 9 10 10 10 10 10 10 9 8 6 6 5 6 5 4 4 5 6 8 8 10 14
11 10 9 9 11 10 9 9 8 8 7 9 8 8 8 7 6 7 6 7 6 6 6 5 5 5 5 5 5 5 5 5 5 5 6 7 7 7 8 7 7 8 8 8 9 10 9 10 11 10 9 10 12 22 21 21 20 19 16 11 9 9 9 8 8 9 11 11 11 10 10 10 9 7 7 8 7 6 5 4 5 6 7 7 7
10 11 10 11 12 11 10 8 6 8 6 7 8 6 9 7 6 7 6 6 6 6 5 4 5 5 5 4 4 5 5 5 6 6 7 8 7 8 8 7 7 7 7 8 8 8 10 10 10 10 9 12 13 22 21 22 21 19 15 10 9 10 9 10 10 10 10 9 10 11 11 11 10 8 12 11 6 3 4 4 3 1 1 1 1
10 12 9 8 9 11 9 8 6 7 8 7 6 7 8 8 7 6 7 6 6 6 5 4 4 4 5 4 5 5 5 6 6 7 7 7 7 8 8 6 7 8 8 9 8 8 8 9 10 10 11 10 12 20 22 22 21 20 12 9 10 9 10 10 11 9 9 10 12 13 10 11 10 11 14 13 11 8 6 7 6 6 6 6 7
10 10 9 7 7 8 7 10 8 7 7 6 6 8 8 8 7 5 6 6 6 6 4 4 5 4 4 5 5 5 6 6 6 7 6 6 6 6 7 6 7 8 9 8 7 8 8 8 10 12 11 10 11 18 23 22 21 21 15 11 10 10 11 11 10 11 10 10 15 26 19 11 11 12 16 16 16 12 9 8 7 6 7 8 7
12 12 11 10 10 10 9 9 9 9 5 6 7 8 9 8 6 6 6 7 6 4 4 4 4 4 5 5 5 6 6 6 6 6 5 6 7 6 5 6 7 7 7 6 7 7 7 8 9 9 14 13 11 15 22 22 22 21 14 10 9 9 12 12 10 11 11 11 12 15 21 17 13 15 21 20 21 14 11 10 9 8 9 10 9
9 10 11 11 10 11 10 10 9 7 6 7 7 8 8 8 6 6 7 6 4 4 4 4 5 5 5 6 5 6 6 5 5 5 6 6 4 6 7 7 7 6 6 6 6 6 7 8 8 9 10 11 12 12 17 22 22 22 19 11 10 11 11 10 11 10 11 12 12 11 14 20 21 21 21 21 19 17 13 11 11 11 11 11 8
11 10 10 10 10 12 11 10 8 7 7 6 8 9 8 7 7 8 7 5 4 4 4 5 6 7 7 7 6 5 6 6 4 4 4 5 6 6 6 7 7 6 6 7 8 7 8 8 9 9 9 10 11 12 13 21 21 21 21 16 11 11 9 9 10 11 11 11 11 11 11 19 22 22 21 22 22 21 17 13 13 11 10 10 11
8 10 10 10 10 10 9 8 6 8 7 7 8 10 8 7 8 7 4 3 4 5 5 6 8 7 6 6 6 6 5 5 4 5 7 7 6 6 6 5 5 6 7 8 7 7 8 9 9 9 10 10 11 16 13 17 20 21 21 22 13 11 10 9 11 10 10 10 10 10 11 16 22 22 22 21 22 21 20 14 15 17 18 19 14
10 9 10 12 10 10 9 8 6 6 6 6 10 10 8 7 8 5 3 4 5 6 7 7 7 6 5 5 5 6 6 6 6 6 7 7 6 7 7 6 7 7 8 8 8 8 8 9 9 9 9 10 11 11 18 15 19 21 21 20 19 14 14 11 10 11 11 10 9 10 11 18 19 21 21 22 21 21 17 15 20 21 20 18 15
8 10 10 12 11 9 9 6 6 6 6 7 11 10 8 8 7 4 4 5 6 6 6 7 6 5 5 5 5 5 6 6 7 6 7 7 7 6 6 7 7 7 7 8 8 8 8 9 9 9 9 10 10 10 13 18 16 19 18 19 18 19 17 10 10 10 9 9 9 10 12 18 19 19 20 21 22 20 16 19 18 19 19 18 13
10 9 9 11 12 11 9 7 6 7 6 7 8 11 9 9 4 4 6 7 6 6 7 6 5 4 4 4 5 6 6 6 6 6 7 7 7 6 8 7 7 7 7 7 7 7 7 7 8 9 9 10 10 10 10 14 18 16 18 18 17 18 18 15 11 9 9 9 11 16 18 18 18 18 20 18 17 20 22 20 20 19 16 11 11
9 7 9 10 10 10 10 9 5 6 6 6 8 10 11 7 4 5 6 6 6 7 5 4 4 4 4 4 6 6 6 6 5 6 6 5 5 6 6 6 7 6 6 7 7 7 7 7 7 8 8 8 9 9 10 11 12 14 13 17 17 17 16 15 14 11 13 16 16 16 18 18 17 16 14 13 12 13 18 19 19 17 12 11 10
11 9 10 10 11 11 10 9 8 5 6 6 6 7 8 6 6 5 6 6 7 6 4 4 4 4 4 5 6 5 5 6 5 5 6 6 6 6 6 6 6 7 6 6 6 7 7 7 7 7 7 8 9 9 10 10 10 10 10 11 11 12 14 13 11 10 11 10 13 13 12 14 13 16 17 16 15 15 15 14 12 12 11 11 10
10 9 10 10 11 10 9 9 8 6 6 7 7 7 7 6 5 5 6 7 6 4 4 3 3 3 3 3 4 6 6 6 5 6 7 7 6 6 7 6 5 5 6 6 6 6 6 5 6 6 7 7 8 8 9 9 9 9 9 9 9 9 9 9 9 8 8 8 9 10 13 11 11 12 13 12 11 11 11 11 11 10 11 10 12
10 9 10 10 9 10 9 9 7 5 7 6 6 6 6 7 6 5 7 8 5 4 4 2 1 3 3 3 4 4 4 5 4 5 4 2 4 6 5 4 1 0 0 1 4 4 3 2 1 4 5 7 7 8 8 7 8 9 9 8 9 8 8 8 9 10 7 8 10 12 12 12 12 11 11 11 10 10 10 10 11 10 9 9 9
9 9 9 9 9 10 9 9 6 6 8 8 7 6 5 6 6 5 7 8 5 4 3 1 1 2 2 3 3 4 4 4 4 5 5 4 2 1 1 3 4 5 4 2 2 2 3 2 3 1 2 2 3 4 9 12 12 13 14 15 14 14 13 11 12 13 9 9 9 9 9 9 9 9 9 9 9 9 9 9 9 9 9 8 8
10 11 10 10 9 9 9 8 7 7 8 8 8 7 6 5 6 5 7 8 6 5 3 1 1 1 1 1 2 3 3 3 3 5 5 3 5 4 4 3 3 4 5 6 5 4 4 4 2 4 3 5 7 8 10 11 12 12 13 14 14 14 14 14 14 9 10 10 9 9 8 8 8 8 8 8 8 8 8 7 8 7 8 8 8
Wind_Direction
147 142 143 137 136 132 134 132 119 114 119 115 123 134 146 150 152 165 192 175 132 106 81 79 89 45 41 37 273 242 240 223 237 240 209 213 212 212 218 224 225 227 216 200 208 218 214 214 214 218 203 197 205 227 233 240 227 219 201 178 182 196 202 186 131 113 113 195 50 273 267 250 250 232 231 219 212 199 170 184 184 197 248 245 224
138 135 133 133 134 137 134 136 143 145 148 136 141 142 134 144 156 159 151 126 98 86 85 92 109 155 159 217 208 243 245 264 278 276 256 237 218 222 224 222 221 221 220 208 214 205 214 214 215 225 211 218 220 225 230 228 224 246 152 214 225 195 232 187 170 134 186 193 177 226 253 259 236 242 238 230 212 180 176 201 202 198 208 216 207
147 140 136 140 139 137 133 130 127 134 141 144 139 129 122 125 123 139 137 130 112 116 109 143 215 193 162 228 190 268 238 216 214 241 231 235 216 216 226 224 216 225 223 223 226 224 217 211 226 214 212 223 234 235 238 243 218 222 187 207 218 204 207 156 168 188 201 172 193 283 234 229 265 241 234 231 210 202 194 200 197 205 213 209 201
150 150 148 144 140 133 132 135 139 139 132 126 129 118 107 104 113 120 128 118 115 150 169 281 204 178 176 158 159 155 266 330 79 292 327 346 297 247 237 243 248 249 235 231 234 232 212 219 228 220 228 211 221 235 228 235 227 216 211 217 211 246 190 212 179 196 181 128 162 211 241 172 288 228 211 216 202 205 198 203 196 207 207 201 197
151 148 143 140 139 138 138 139 138 132 125 123 115 113 116 124 124 121 122 133 146 143 131 159 118 65 47 13 34 6 5 12 8 334 338 324 307 308 276 230 243 251 255 248 240 240 229 227 226 233 230 221 219 232 234 234 231 228 224 221 204 228 247 224 208 191 200 196 169 107 345 260 230 258 167 235 186 207 212 204 202 202 200 200 201
149 146 142 140 136 128 121 130 131 125 120 112 113 114 112 104 104 101 96 96 102 96 140 93 66 87 51 40 12 9 353 357 353 339 329 324 293 294 310 284 262 259 257 254 250 245 238 230 229 231 235 234 225 233 238 239 238 234 218 221 227 218 238 242 246 206 207 209 213 216 175 202 203 243 114 265 189 209 207 212 211 206 201 201 203
146 141 138 133 134 131 131 133 127 116 111 112 109 109 105 101 85 73 74 61 42 51 33 70 62 53 77 95 94 41 11 295 284 300 300 299 299 302 297 306 264 265 274 267 270 259 242 232 235 239 244 246 243 238 242 239 242 240 234 220 230 229 211 239 239 238 227 228 223 234 245 228 164 150 223 95 257 254 206 201 215 217 210 211 209
149 143 137 136 138 142 139 125 116 112 108 102 94 88 89 87 90 82 76 67 55 61 52 59 91 71 61 45 49 31 63 289 319 320 331 323 338 324 326 315 297 254 270 272 247 216 199 214 218 225 231 237 241 240 244 242 238 240 232 230 235 228 227 225 245 233 225 234 203 233 238 247 238 233 244 229 210 196 214 218 213 205 210 215 215
143 137 133 134 134 127 119 113 112 98 94 94 93 98 97 94 90 83 70 70 53 60 66 51 76 89 79 80 60 24 37 14 352 17 14 359 11 349 348 320 313 306 289 277 276 270 261 241 227 230 237 245 238 249 244 247 248 256 252 244 239 246 238 243 243 246 225 236 224 235 239 237 235 226 219 210 212 217 228 196 214 201 206 209 214
128 121 117 114 110 107 106 105 93 91 96 91 90 88 83 84 80 77 58 53 53 67 68 61 63 77 75 67 66 31 22 20 36 26 13 360 12 2 356 354 342 325 315 303 290 267 260 259 254 249 246 248 246 246 252 251 250 250 259 263 261 258 251 249 247 252 243 240 227 233 227 226 229 197 206 212 234 226 231 209 208 200 204 214 201
125 121 118 117 116 115 110 100 98 95 91 88 84 79 79 73 77 72 66 66 53 58 55 47 51 50 78 77 74 57 28 29 29 21 7 5 13 0 0 343 340 328 324 315 302 293 287 262 249 251 247 249 255 253 251 249 252 254 257 256 257 258 261 256 253 249 248 244 236 230 235 228 226 219 208 204 207 209 222 241 228 207 210 211 207
122 120 119 120 118 116 107 100 99 96 93 89 83 84 76 73 76 78 52 57 51 56 57 48 50 46 45 57 58 55 54 45 38 24 9 6 9 2 347 342 354 339 335 330 323 318 304 292 276 266 259 253 253 252 254 249 255 261 259 254 258 256 253 255 261 273 267 256 243 234 236 236 235 237 233 211 206 213 204 217 217 201 228 232 145
125 122 122 121 120 119 111 110 102 96 100 99 83 80 82 75 72 74 63 56 74 75 71 57 51 41 41 45 42 39 47 54 53 38 8 10 7 1 355 346 342 350 339 334 323 322 316 303 295 280 264 245 248 256 259 259 259 259 261 261 256 256 260 261 255 252 254 258 265 256 250 234 236 231 229 232 223 206 202 220 225 192 218 217 187
127 123 125 123 123 117 112 113 109 107 106 103 96 81 89 84 73 78 73 82 87 78 73 62 46 34 30 32 32 31 33 25 34 31 6 3 350 342 334 336 336 329 320 315 310 312 315 302 291 283 274 271 258 245 248 253 255 253 254 258 261 259 254 254 256 260 259 251 254 252 251 251 248 245 222 220 211 197 209 211 206 200 214 215 198
124 121 124 122 122 118 115 110 109 112 109 101 107 108 90 87 85 80 83 66 64 67 69 65 46 43 38 36 41 49 39 26 16 11 358 352 346 335 335 340 340 323 319 310 317 326 325 323 313 295 285 277 275 268 259 255 250 253 250 251 255 260 263 261 260 262 263 260 251 247 250 254 251 240 228 222 208 207 208 204 192 192 213 215 211
121 119 118 119 120 115 111 111 114 113 108 105 107 107 106 105 103 102 91 73 71 63 46 43 37 50 41 39 26 30 30 21 10 2 355 355 349 354 343 340 337 326 323 330 333 335 334 332 327 312 298 289 280 268 269 266 260 256 255 253 258 257 261 261 260 256 256 257 256 250 243 243 244 242 237 229 221 209 209 197 196 197 190 207 204
124 122 122 122 118 106 112 117 119 117 121 122 109 101 106 107 104 94 80 75 57 43 39 11 24 43 20 20 15 12 16 21 4 355 355 357 9 2 357 342 339 346 338 341 336 336 336 334 331 325 323 311 297 282 271 267 266 264 265 265 264 263 260 264 266 263 265 265 263 260 257 253 243 238 235 227 225 213 216 205 199 193 186 195 204
120 123 126 125 118 119 123 119 121 126 130 117 99 94 102 107 108 98 72 66 44 38 41 37 37 40 24 18 9 14 13 15 19 19 15 21 14 3 355 360 354 342 343 337 339 336 336 336 333 330 324 320 307 297 286 275 268 263 259 259 260 263 262 262 261 265 267 265 263 263 258 255 250 248 244 231 224 217 211 214 202 200 184 193 200
116 124 118 113 120 125 127 125 123 111 92 93 95 101 89 77 81 93 89 73 55 55 64 44 37 32 30 19 16 17 26 34 32 32 29 25 9 358 353 345 339 348 347 346 343 342 339 333 331 324 322 318 315 302 293 285 272 266 262 261 260 259 264 269 269 265 263 259 260 261 259 259 255 247 242 235 233 224 213 205 207 206 194 198 193
113 114 109 117 120 120 122 126 120 109 107 102 99 90 93 97 84 74 69 71 69 65 56 45 22 31 22 25 28 35 41 37 32 29 26 21 2 357 350 352 350 342 345 341 341 340 338 333 327 320 314 317 324 317 305 293 285 273 269 266 262 257 258 262 265 259 258 256 256 257 259 258 255 247 239 231 227 225 217 211 204 199 203 198 192
116 116 120 121 118 119 121 106 101 108 106 105 102 106 105 75 65 64 85 78 71 57 54 38 32 27 35 38 37 41 36 31 31 26 25 12 4 358 351 346 342 347 341 344 343 346 342 332 325 319 323 332 331 331 327 311 294 283 272 267 267 263 258 263 265 266 260 256 256 258 260 256 252 243 239 232 221 220 217 215 217 206 202 195 190
123 129 127 120 119 116 93 98 110 101 99 92 94 91 72 64 74 85 77 70 72 54 51 43 40 44 49 46 43 37 33 26 29 20 18 6 360 351 344 349 351 343 343 342 347 348 337 333 330 333 336 334 333 331 324 312 306 293 282 272 269 264 266 266 263 264 263 256 253 255 257 253 245 243 236 233 226 205 193 207 208 211 205 192 188
121 125 113 101 98 103 111 108 103 106 103 94 76 71 73 80 80 79 79 65 66 64 53 53 55 56 54 50 47 37 27 24 24 17 13 9 5 358 358 358 356 353 352 355 351 348 340 341 338 339 337 333 330 331 331 346 341 329 316 300 281 275 274 275 272 268 265 264 262 259 261 257 248 242 236 233 224 206 206 213 202 203 202 197 190
109 93 91 94 100 104 102 100 104 107 100 82 74 73 78 83 83 76 73 68 58 52 51 55 58 57 53 53 47 33 30 21 19 3 11 10 5 2 9 10 5 1 357 354 355 350 348 348 344 342 337 332 331 326 328 347 338 331 331 326 320 307 290 278 274 270 266 263 266 265 261 258 252 244 240 228 222 221 213 219 211 195 196 195 194
111 107 104 102 99 98 99 105 105 96 75 74 79 83 82 80 79 79 75 67 63 51 57 52 57 59 50 52 43 31 26 14 12 10 17 12 6 3 10 10 2 358 353 349 355 352 355 353 348 342 335 332 330 323 323 331 334 330 326 323 318 313 304 295 284 274 268 264 261 259 262 261 257 250 240 232 229 228 223 217 207 186 195 202 199
106 104 103 106 108 107 103 92 83 80 94 91 90 89 86 82 71 74 73 63 53 52 55 57 50 58 53 52 44 29 15 14 16 16 14 9 5 6 1 355 357 350 349 352 349 348 351 347 344 339 335 329 326 323 320 322 321 324 323 319 315 309 303 300 292 280 274 266 263 262 260 256 253 248 244 232 230 232 232 217 209 191 191 194 201
110 112 113 112 110 108 101 94 91 92 90 92 93 88 86 82 74 62 64 63 52 55 51 57 52 55 54 42 35 16 9 14 13 11 9 6 4 2 0 357 355 351 348 351 350 350 348 344 341 335 333 330 328 325 320 317 320 323 319 312 308 306 301 298 295 285 276 270 267 264 259 254 253 249 246 239 230 230 230 230 207 197 192 194 198
110 118 121 120 115 106 100 97 96 95 92 90 86 87 86 84 80 69 60 57 45 52 47 47 50 53 45 34 16 6 3 7 8 3 2 360 357 356 358 355 352 355 357 360 352 349 345 343 339 335 333 331 327 323 318 316 319 315 309 300 294 295 298 296 294 289 277 273 269 267 261 256 252 251 248 244 229 228 227 222 198 200 196 199 201
120 122 120 117 112 108 103 100 101 98 96 97 96 91 88 80 76 70 63 56 50 57 52 47 49 48 37 21 6 0 4 6 4 0 357 356 357 356 359 360 2 2 6 4 356 353 351 347 344 341 336 332 326 320 315 326 319 308 295 287 285 287 288 288 289 288 282 272 271 265 265 263 259 258 244 232 216 218 223 226 202 193 202 200 202
128 125 117 113 111 107 106 106 102 101 100 99 94 89 85 84 76 67 63 42 55 51 50 48 50 47 28 10 4 4 6 12 12 6 358 351 352 358 5 8 10 10 10 7 0 1 359 353 347 344 342 337 327 314 329 323 310 293 287 281 281 279 280 285 289 291 286 278 273 271 271 271 269 266 259 247 231 220 221 221 214 195 198 204 204
120 117 115 113 108 105 107 107 107 106 105 99 96 92 89 81 74 69 59 48 62 57 49 42 30 16 16 17 20 18 16 23 15 9 3 358 352 354 4 12 15 16 14 7 3 4 2 355 351 348 344 343 333 332 331 321 316 309 289 262 261 273 282 289 289 284 285 291 292 288 279 276 271 265 260 248 235 228 226 228 228 211 198 199 205
121 119 119 114 111 109 109 112 113 113 111 108 100 97 90 84 75 67 60 59 62 60 55 43 32 24 19 17 23 25 27 24 19 13 7 359 354 354 5 15 19 21 17 8 6 2 0 357 353 352 351 348 339 340 334 332 333 343 324 259 269 274 285 298 321 345 352 345 335 319 296 285 274 266 264 252 244 240 233 229 226 222 210 209 205
121 120 116 112 110 110 113 114 114 113 110 107 108 97 87 86 81 74 74 67 65 61 55 46 31 30 20 19 15 26 28 24 16 11 7 8 6 6 7 14 22 22 16 13 4 2 2 359 359 357 353 351 344 345 343 347 351 356 0 272 289 356 8 14 14 12 4 353 345 339 332 314 290 290 288 279 259 239 234 229 233 233 223 216 217
112 112 111 108 102 96 101 110 111 109 105 104 96 95 91 87 89 81 75 70 71 57 54 42 34 26 19 18 18 19 25 19 11 11 14 17 15 11 7 6 15 19 21 18 9 8 3 4 2 359 352 353 356 351 354 358 359 360 5 11 31 26 21 23 23 16 10 1 351 339 335 329 330 322 317 323 314 277 259 228 230 232 234 228 224
124 116 108 103 98 96 101 104 108 110 108 102 93 96 99 87 83 81 72 76 66 63 48 38 33 21 20 20 23 27 25 17 16 16 20 23 17 11 12 6 12 18 19 17 12 9 9 9 9 7 6 7 7 360 3 5 4 2 6 19 24 28 27 24 21 19 17 9 358 350 342 334 343 354 1 345 324 315 300 282 248 243 233 226 215
125 114 113 110 108 113 120 119 119 107 104 103 106 105 96 90 82 79 75 68 67 59 48 37 36 22 24 19 27 29 26 20 18 21 27 22 18 13 13 6 16 19 22 20 18 14 11 11 9 9 12 16 12 8 8 11 10 5 9 24 22 25 26 26 24 16 13 6 7 6 360 355 1 354 347 354 10 322 310 306 306 325 315 317 51
120 118 113 105 110 122 128 121 114 113 110 107 110 101 97 91 79 72 71 67 63 60 46 42 41 30 30 24 27 31 29 25 18 26 25 22 18 12 13 7 20 24 23 22 18 15 10 11 11 14 14 14 18 12 13 15 15 11 17 24 23 26 27 27 24 15 13 13 19 17 14 12 5 2 344 353 21 38 40 31 34 33 19 13 357
119 111 114 113 117 115 117 118 115 106 109 113 108 102 96 88 81 76 77 68 65 54 42 44 42 32 33 32 31 33 33 27 27 26 20 18 16 18 18 9 26 27 27 20 14 14 13 12 16 19 14 12 17 14 15 16 19 18 23 24 22 28 29 27 23 22 19 20 22 26 26 21 19 11 10 14 28 37 33 24 33 42 43 33 7
126 126 121 121 124 126 124 114 112 108 107 105 103 98 93 88 83 79 75 70 61 55 44 47 39 35 39 37 35 37 34 31 30 22 21 25 21 19 5 15 26 30 33 20 15 14 8 13 13 15 18 21 17 16 15 15 19 20 24 29 26 33 34 26 23 22 23 26 23 22 23 26 29 28 27 30 36 40 44 29 28 41 40 31 10
116 114 119 122 124 115 114 116 116 121 120 109 105 96 92 90 83 80 74 69 62 57 49 54 50 45 45 40 34 37 35 33 26 24 25 29 17 25 20 23 23 23 25 20 14 10 15 14 5 11 19 19 18 17 15 14 20 20 19 31 30 36 29 23 26 26 26 28 27 25 23 28 36 35 36 35 39 44 55 47 46 42 35 31 14
116 118 117 116 123 125 128 129 127 125 116 111 104 96 89 89 88 80 77 77 73 66 65 63 57 51 43 36 31 33 34 31 26 25 31 36 29 30 24 27 23 17 25 24 19 13 20 18 13 12 14 16 20 18 11 18 21 22 20 25 38 34 28 29 32 32 29 27 25 27 29 32 42 40 41 40 42 42 43 50 47 48 42 30 37
115 120 114 114 116 115 111 107 115 116 118 113 105 97 95 95 88 88 99 93 77 69 65 61 55 50 44 38 33 27 32 34 28 31 41 40 25 30 31 26 23 27 32 30 24 21 24 23 17 13 15 14 12 19 15 15 20 23 24 26 33 30 24 35 38 38 31 27 20 22 26 35 45 46 45 44 44 44 43 50 45 45 46 51 47
122 114 118 120 119 121 121 124 124 120 116 113 105 101 101 99 97 112 111 86 75 68 64 61 55 48 43 41 37 36 30 26 29 28 41 43 28 34 29 27 29 32 35 33 26 22 27 27 23 14 14 17 13 13 16 14 17 22 22 23 25 24 21 37 42 43 33 27 21 20 21 27 40 46 47 47 47 46 47 42 46 50 46 44 51
126 126 127 119 119 120 121 126 126 122 119 118 112 110 110 107 111 126 99 86 75 68 69 62 52 46 42 37 37 39 37 33 29 27 38 40 31 26 33 29 28 33 31 35 26 21 25 28 22 13 15 17 14 14 11 14 15 18 20 22 21 22 24 32 39 45 35 30 27 27 28 32 37 40 42 45 45 47 45 39 41 46 53 54 50
129 130 127 122 125 126 125 125 129 127 126 120 117 117 117 114 132 120 106 98 87 77 73 63 51 42 40 33 43 43 40 38 31 33 40 30 28 24 34 17 28 32 34 36 25 21 27 21 20 18 14 16 12 10 11 10 10 14 19 19 21 22 23 25 36 33 34 28 28 33 34 35 35 39 42 42 40 39 39 39 37 38 43 47 50
126 121 114 115 117 121 125 124 120 124 122 125 124 123 121 134 134 118 111 106 98 89 76 68 58 48 32 34 49 40 41 40 42 41 48 39 38 26 35 20 24 29 31 35 24 25 23 21 22 16 14 10 9 13 11 9 7 11 13 14 18 22 21 24 32 29 24 27 25 28 31 33 34 33 41 41 42 36 39 39 39 39 41 42 45
134 131 121 118 122 123 127 128 128 132 124 123 120 116 124 129 129 126 115 108 99 97 92 77 69 53 42 45 52 41 37 34 34 39 43 41 33 33 36 30 25 22 23 26 23 24 22 20 25 8 7 5 14 13 12 8 8 9 12 10 16 16 16 21 25 21 22 23 28 31 34 36 40 37 42 44 41 34 36 34 36 38 40 41 42
131 130 123 123 125 129 130 129 132 138 129 128 126 125 125 125 125 124 117 106 100 104 106 97 73 71 57 48 52 42 44 36 29 36 36 29 29 33 39 31 17 9 20 17 20 20 17 15 10 6 3 14 12 14 12 7 2 9 9 11 12 15 18 18 16 13 22 23 31 33 35 32 34 37 35 35 33 36 37 36 35 35 39 41 42
124 127 127 130 130 127 129 124 124 123 119 120 124 127 130 132 133 130 123 111 110 101 96 80 43 64 57 55 56 48 37 35 24 22 27 64 55 25 24 17 341 229 234 349 17 10 8 330 334 359 16 12 14 10 356 333 3 22 29 20 13 11 9 14 14 11 21 34 36 36 30 29 30 32 32 31 29 30 30 30 32 30 33 35 37
127 125 123 121 122 124 122 118 123 122 117 122 129 134 138 139 135 137 125 119 124 116 105 101 52 75 60 58 49 33 24 30 28 22 19 7 325 282 354 59 1 353 357 328 270 354 308 301 348 319 188 45 344 308 312 352 10 17 22 26 25 24 22 20 11 15 30 44 36 38 31 31 28 29 29 27 24 23 24 25 23 25 27 30 30
124 119 119 118 120 117 115 115 124 119 118 126 133 140 143 147 144 147 134 128 131 130 135 168 161 164 53 39 49 51 15 8 10 21 21 24 1 349 347 350 346 349 9 11 16 356 356 348 8 359 312 254 276 314 351 4 9 16 24 27 26 24 23 20 13 15 32 36 29 34 25 26 28 30 31 26 23 26 23 24 24 24 27 27 29